DELTA 1 DEB, 8539

Orbit data source: Space-Track

DELTA 1 DEB, 8539 is space debris in SSO originally from a launch on Sun, 23 Jul 1972 UTC launched from the Air Force Western Test Range (AFWTR). Debris objects in space refer to the collection of defunct objects orbiting the Earth. Examples of debris include non-operational satellites, rocket bodies, and fragments generated from explosions, collisions, or faulty payload assembly.

Loading next visibility...
Identifier
8539, 1972-058GN
Orbit
SSO
Country
Flag of USUS
Related business
Manufacturer
Unknown
Mission
Spacecraft
Bus & Motor
Unknown
Mass
Unknown
Launch date (UTC)
1972-07-23 (54 years ago)
Launch vehicle
Unknown
Launch site
Air Force Western Test Range (AFWTR)
Object type
Payload
Rocket body
Debris
Shape & HBR
Unknown shape, 0.1 m
Radar Cross Section
Medium (>0.1 m² and <1 m²)

Expand to show TLE details & history
Last TLE update: 1 week ago

TLE from 1 week ago
0 DELTA 1 DEB
1 08539U 72058GN  26155.00204443  .00000681  00000-0  26502-3 0  9996
2 08539  97.2581 175.3029 0198204 341.1210  18.2694 14.22045844752718
Epoch: 2026-06-04T00:02Z
TLE epoch observation values (Epoch: 2026-06-04T00:02:56.638Z)
Latitude
-0.00003°
Longitude
-77.88566°
Altitude
686.213 km
Speed
7.584 km/s
True Right ascension
11h 41m 12s
True Declination
0° 00' 00"
Sunlit
Object was in daylight at epoch
Visualization orbit readout
Latitude
Unknown
Longitude
Unknown
Altitude
Unknown
Speed
Unknown
Apparent Right ascension
Unknown
Apparent Declination
Unknown
Sunlit
N/A
Visualization observer readout
Local Sidereal Time
13:50:42
Azimuth
Unknown
Elevation
Unknown
Doppler factor
Unknown
Orbital elements
Apogee altitude
958.114 km
Perigee altitude
672.951 km
Semi-major axis
7,193.669 km
Eccentricity
0.01982
Inclination
97.2581°
RAAN
175.3029°
Arg. of periapsis
341.121°
True anomaly
18.99852°
Mean anomaly
18.2694°
Eccentric anomaly
18.63222°
Mean motion
3.55728 °/min
Orbital period
101.2 mins
BSTAR
0.00026502
Loading maneuver chart data...
Computing Atmospheric mass density...
Loading historical data...
Loading historical data...
Loading historical data...
Loading historical data...
Loading historical data...
Loading historical data...
Loading historical data...

Documentation

Showing up to 5 results
|